{"data":{"norad_id":57364,"epoch":"2026-05-24T13:05:10.676544Z","epoch_age_seconds":114630,"freshness":"FRESH","line1":"1 57364U 23099AN  26144.54526246  .00000581  00000+0  31332-4 0  9998","line2":"2 57364  43.0025 173.0127 0001828 294.5321  65.5340 15.26745676157798","mean_motion":15.26745676,"eccentricity":0.0001828,"inclination_deg":43.0025,"raan_deg":173.0127,"arg_perigee_deg":294.5321,"mean_anomaly_deg":65.534,"bstar":3.1332e-5,"rev_number":15779,"period_min":94.318262866985,"perigee_km":484.29381815779,"apogee_km":486.80318157654,"semimajor_km":6863.6854998672,"source":"CELESTRAK","updated_at":"2026-05-25T13:38:18.293469Z"}}